Location: Launay
(47.2429°N, 1.5727°E)
Time: 04:35:24
(UTC+00:00)

BlueWalker 3 - Pass Details

Date: 19 May 2025
Orbit: 460 x 472 km, 53.2° (Epoch: 13 June)

Event Time Altitude Azimuth Distance (km) Brightness Sun altitude
Rises 21:00:15 0° 299° (WNW) 2,494 6.9 -12.7°
Reaches altitude 10° 21:02:24 10° 301° (WNW) 1,619 5.7 -12.9°
Maximum altitude 21:06:03 75° 27° (NNE) 487 1.9 -13.3°
Enters shadow 21:08:23 21° 111° (ESE) 1,107 3.2 -13.6°
